sat.trackr.live / text

‹ back to catalog

2021-050D

NORAD 48843 · 2021-050D

PAYLOAD ACTIVE UNKNOWN

§ Identity

Operator
Country
PRC
Launch date
2021-06-11
Launch site
TAISC
Launch vehicle
Mass (kg)
RCS (m²)

External: N2YO · Heavens-Above · Gunter

§ Orbital elements

Epoch: 2026-09-13T04:57:37.226304Z

Period
94.57 min
Inclination
97.3275°
Eccentricity
0.0010127
Mean motion
15.22722626 rev/d
Perigee alt
490.7 km
Apogee alt
504.6 km
Semi-major
6,875.8 km
B*
1.7792e-4
RAAN
330.2440°
Arg perigee
316.0789°
Mean anomaly
43.9642°
Rev number
29,236

§ Raw data

2021-050D1 48843U 21050D   26256.20668086  .00004085  00000+0  17792-3 0  99972 48843  97.3275 330.2440 0010127 316.0789  43.9642 15.22722626292368

JSON: /api/v1/satellites/48843 · /tle

For live sub-satellite position, see the globe view (requires WebGL).

§ Visibility from observer

Set your observer location to see the next 7 days of passes ≥ 10°. The values pass through the URL so the page stays shareable.

No JS? Fill the form by hand. The geolocation button needs JavaScript.

§ Radio — SatNOGS DB

ModeDescriptionDownlinkUplink
FM S-band telemetry 2.284 GHz

1 transmitter · refreshed weekly from db.satnogs.org